TimeEDT,TemperatureF,Dew PointF,Humidity,Sea Level PressureIn,VisibilityMPH,Wind Direction,Wind SpeedMPH,Gust SpeedMPH,PrecipitationIn,Events,Conditions,WindDirDegrees,DateUTC
12:15 AM,61.0,60.1,97,30.34,0.8,Calm,Calm,-,N/A,,Mist,0,2013-07-14 04:15:00
12:20 AM,62.1,60.1,93,30.34,1.2,Calm,Calm,-,N/A,,Scattered Clouds,0,2013-07-14 04:20:00
12:24 AM,62.1,60.1,93,30.34,2.5,Calm,Calm,-,N/A,,Mostly Cloudy,0,2013-07-14 04:24:00
12:27 AM,62.1,60.1,93,30.34,4.0,Calm,Calm,-,N/A,,Scattered Clouds,0,2013-07-14 04:27:00
12:39 AM,61.0,59.0,93,30.33,1.8,Calm,Calm,-,N/A,,Partly Cloudy,0,2013-07-14 04:39:00
12:49 AM,60.8,59.0,94,30.33,1.0,Calm,Calm,-,N/A,,Mist,0,2013-07-14 04:49:00
12:53 AM,61.0,59.0,93,30.30,1.0,Calm,Calm,-,N/A,,Clear,0,2013-07-14 04:53:00
1:01 AM,62.1,59.0,90,30.33,1.0,Calm,Calm,-,N/A,,Mist,0,2013-07-14 05:01:00
1:08 AM,61.0,59.0,93,30.34,0.5,Calm,Calm,-,N/A,Fog,Fog,0,2013-07-14 05:08:00
1:16 AM,61.0,59.0,93,30.34,1.5,Calm,Calm,-,N/A,,Partly Cloudy,0,2013-07-14 05:16:00
1:21 AM,62.1,60.1,93,30.34,3.0,Calm,Calm,-,N/A,,Partly Cloudy,0,2013-07-14 05:21:00
1:38 AM,61.0,57.9,90,30.34,2.5,Calm,Calm,-,N/A,,Clear,0,2013-07-14 05:38:00
1:53 AM,61.0,57.9,90,30.30,2.0,Calm,Calm,-,N/A,,Clear,0,2013-07-14 05:53:00
2:02 AM,60.1,57.9,93,30.33,3.0,Calm,Calm,-,N/A,,Clear,0,2013-07-14 06:02:00
2:16 AM,59.0,57.0,93,30.33,1.8,Calm,Calm,-,N/A,,Clear,0,2013-07-14 06:16:00
2:24 AM,59.0,57.0,93,30.33,2.5,SE,3.5,-,N/A,,Clear,140,2013-07-14 06:24:00
2:27 AM,59.0,57.0,93,30.33,3.0,Calm,Calm,-,N/A,,Partly Cloudy,0,2013-07-14 06:27:00
2:32 AM,59.0,57.0,93,30.33,1.5,Calm,Calm,-,N/A,,Scattered Clouds,0,2013-07-14 06:32:00
2:35 AM,59.0,57.0,93,30.33,0.8,Calm,Calm,-,N/A,,Mist,0,2013-07-14 06:35:00
2:53 AM,59.0,57.0,93,30.30,0.5,SE,3.5,-,N/A,Fog,Fog,130,2013-07-14 06:53:00
3:17 AM,59.0,57.0,93,30.33,0.2,Calm,Calm,-,N/A,Fog,Fog,0,2013-07-14 07:17:00
3:25 AM,59.0,57.0,93,30.33,0.8,Calm,Calm,-,N/A,,Mist,0,2013-07-14 07:25:00
3:42 AM,60.1,57.0,90,30.33,1.0,Calm,Calm,-,N/A,,Mist,0,2013-07-14 07:42:00
3:51 AM,59.0,57.2,94,30.33,0.2,Calm,Calm,-,N/A,Fog,Fog,0,2013-07-14 07:51:00
3:52 AM,59.0,57.0,93,30.30,0.2,Calm,Calm,-,N/A,Fog,Fog,0,2013-07-14 07:52:00
4:11 AM,59.0,57.0,93,30.33,0.8,Calm,Calm,-,N/A,,Mist,0,2013-07-14 08:11:00
4:21 AM,60.1,57.9,93,30.33,2.0,NNW,3.5,-,N/A,,Mostly Cloudy,330,2013-07-14 08:21:00
4:27 AM,61.0,59.0,93,30.33,6.0,NW,3.5,-,N/A,,Scattered Clouds,310,2013-07-14 08:27:00
4:53 AM,60.1,57.9,93,30.31,8.0,Calm,Calm,-,N/A,,Partly Cloudy,0,2013-07-14 08:53:00
5:02 AM,59.0,57.0,93,30.34,1.8,NNW,3.5,-,N/A,,Scattered Clouds,330,2013-07-14 09:02:00
5:05 AM,60.1,57.9,93,30.34,0.8,Calm,Calm,-,N/A,,Mist,0,2013-07-14 09:05:00
5:12 AM,60.1,57.9,93,30.35,1.0,Calm,Calm,-,N/A,,Mist,0,2013-07-14 09:12:00
5:15 AM,60.1,57.9,93,30.35,3.0,Calm,Calm,-,N/A,,Mostly Cloudy,0,2013-07-14 09:15:00
5:19 AM,60.1,57.9,93,30.35,1.5,Calm,Calm,-,N/A,,Mostly Cloudy,0,2013-07-14 09:19:00
5:29 AM,59.0,57.0,93,30.35,0.5,Calm,Calm,-,N/A,Fog,Fog,0,2013-07-14 09:29:00
5:37 AM,59.0,57.0,93,30.35,1.0,NW,3.5,-,N/A,,Mist,320,2013-07-14 09:37:00
5:40 AM,60.1,57.9,93,30.35,3.0,Calm,Calm,-,N/A,,Overcast,0,2013-07-14 09:40:00
5:51 AM,60.8,57.2,88,30.36,1.8,NW,3.5,-,N/A,,Overcast,320,2013-07-14 09:51:00
5:53 AM,60.1,57.9,93,30.33,1.5,NW,3.5,-,N/A,,Overcast,320,2013-07-14 09:53:00
6:01 AM,60.1,59.0,96,30.36,2.0,Calm,Calm,-,N/A,,Overcast,0,2013-07-14 10:01:00
6:06 AM,60.1,59.0,96,30.36,7.0,Calm,Calm,-,N/A,,Overcast,0,2013-07-14 10:06:00
6:13 AM,60.1,57.9,93,30.36,4.0,Calm,Calm,-,N/A,,Overcast,0,2013-07-14 10:13:00
6:28 AM,59.0,57.0,93,30.36,2.5,Calm,Calm,-,N/A,,Overcast,0,2013-07-14 10:28:00
6:31 AM,59.0,57.0,93,30.36,0.8,Calm,Calm,-,N/A,,Mist,0,2013-07-14 10:31:00
6:36 AM,59.0,57.9,96,30.36,0.2,Calm,Calm,-,N/A,Fog,Fog,0,2013-07-14 10:36:00
6:44 AM,60.1,57.9,93,30.37,1.0,Calm,Calm,-,N/A,,Mist,0,2013-07-14 10:44:00
6:53 AM,61.0,59.0,93,30.34,1.0,Calm,Calm,-,N/A,,Mist,0,2013-07-14 10:53:00
7:01 AM,62.1,60.1,93,30.37,4.0,Calm,Calm,-,N/A,,Mostly Cloudy,0,2013-07-14 11:01:00
7:10 AM,64.0,61.0,90,30.37,8.0,Calm,Calm,-,N/A,,Scattered Clouds,0,2013-07-14 11:10:00
7:53 AM,68.0,64.0,87,30.34,10.0,Calm,Calm,-,N/A,,Clear,0,2013-07-14 11:53:00
8:34 AM,71.1,66.0,84,30.38,10.0,ESE,4.6,-,N/A,,Partly Cloudy,120,2013-07-14 12:34:00
8:53 AM,72.0,66.0,81,30.35,10.0,South,5.8,-,N/A,,Scattered Clouds,170,2013-07-14 12:53:00
9:53 AM,75.0,64.9,71,30.34,10.0,SSW,5.8,-,N/A,,Partly Cloudy,200,2013-07-14 13:53:00
10:53 AM,78.1,66.0,66,30.34,10.0,Calm,Calm,-,N/A,,Mostly Cloudy,0,2013-07-14 14:53:00
11:11 AM,78.1,64.9,64,30.38,10.0,South,8.1,-,N/A,,Scattered Clouds,180,2013-07-14 15:11:00
11:53 AM,80.1,64.9,60,30.33,10.0,South,6.9,-,N/A,,Clear,180,2013-07-14 15:53:00
12:53 PM,81.0,64.0,56,30.33,10.0,Variable,6.9,-,N/A,,Partly Cloudy,0,2013-07-14 16:53:00
1:53 PM,84.0,64.0,51,30.32,10.0,North,-9999.0,-,N/A,,Partly Cloudy,0,2013-07-14 17:53:00
2:53 PM,86.0,64.0,48,30.31,10.0,Variable,5.8,-,N/A,,Partly Cloudy,0,2013-07-14 18:53:00
3:53 PM,84.0,63.0,49,30.31,10.0,SSW,6.9,-,N/A,,Clear,210,2013-07-14 19:53:00
4:53 PM,84.9,63.0,48,30.30,10.0,SW,6.9,-,N/A,,Clear,220,2013-07-14 20:53:00
5:53 PM,84.0,63.0,49,30.30,10.0,SW,9.2,-,N/A,,Partly Cloudy,220,2013-07-14 21:53:00
6:53 PM,82.9,64.9,54,30.29,10.0,SSW,6.9,-,N/A,,Clear,200,2013-07-14 22:53:00
7:53 PM,81.0,66.0,60,30.30,10.0,Calm,Calm,-,0.00,,Mostly Cloudy,0,2013-07-14 23:53:00
8:53 PM,75.9,66.9,74,30.30,10.0,Calm,Calm,-,N/A,,Partly Cloudy,0,2013-07-15 00:53:00
9:53 PM,73.0,66.9,81,30.31,10.0,Calm,Calm,-,N/A,,Clear,0,2013-07-15 01:53:00
10:53 PM,70.0,66.0,87,30.31,10.0,Calm,Calm,-,N/A,,Clear,0,2013-07-15 02:53:00
11:53 PM,66.9,64.0,90,30.31,9.0,Calm,Calm,-,N/A,,Clear,0,2013-07-15 03:53:00